Weather History for Tullahoma, TN

Change the Weather History Date:

Tuesday, March 25, 2014

  Actual Average Record
Temperature  
Mean Temperature 31 °F -  
Max Temperature 41 °F 61 °F 41 °F (2014)
Min Temperature 21 °F 39 °F 21 °F (2014)
Degree Days  
Heating Degree Days 34    
Moisture  
Dew Point 19 °F    
Average Humidity 57    
Maximum Humidity 86    
Minimum Humidity 38    
Precipitation  
Precipitation 0.00 in - - ()
Sea Level Pressure  
Sea Level Pressure 30.10 in    
Wind  
Wind Speed 9 mph (NNW)    
Max Wind Speed 25 mph    
Max Gust Speed 29 mph    
Visibility 10 miles    
Events      
Averages and records for this station are not official NWS values.
T = Trace of Precipitation, MM = Missing Value Source: NWS Daily Summary

Daily Weather History Graph

Daily Weather History Graph

Search for Another Location

Airport:

Trip Planner

Search our weather history database for the weather conditions in past years. The results will help you decide how hot, cold, wet, or windy it might be!

Date:

Astronomy

Mar. 25, 2014 Rise Set
Actual Time 6:41 AM CDT 7:00 PM CDT
Civil Twilight 6:16 AM CDT 7:26 PM CDT
Nautical Twilight 5:46 AM CDT 7:56 PM CDT
Astronomical Twilight 5:16 AM CDT 8:26 PM CDT
Moon 2:52 AM CDT (3/25) 1:41 PM CDT (3/25)
Length of Visible Light 13h 10m
Length of Day
12h 19m
Waning Crescent, 32% of the Moon is Illuminated
Mar 25
Waning Crescent
Mar 30
New
Apr 7
First Quarter
Apr 15
Full
Apr 22
Last Quarter

Hourly Weather History & Observations

Time (CDT) Temp. Windchill Dew Point Humidity Pressure Visibility Wind Dir Wind Speed Gust Speed Precip Events Conditions
12:15 AM 41.0 °F 36.4 °F 17.6 °F 39% 30.03 in 10.0 mi North 6.9 mph - N/A   Clear
12:35 AM 41.0 °F 38.0 °F 17.6 °F 39% 30.03 in 10.0 mi North 4.6 mph - N/A   Clear
12:55 AM 39.2 °F 35.9 °F 17.6 °F 42% 30.03 in 10.0 mi North 4.6 mph - N/A   Clear
1:15 AM 39.2 °F 37.0 °F 17.6 °F 42% 30.02 in 10.0 mi North 3.5 mph - N/A   Clear
1:35 AM 39.2 °F 35.0 °F 17.6 °F 42% 30.01 in 10.0 mi NNW 5.8 mph - N/A   Partly Cloudy
1:55 AM 37.4 °F 31.4 °F 17.6 °F 45% 30.01 in 10.0 mi NNW 8.1 mph - N/A   Partly Cloudy
2:15 AM 37.4 °F 31.4 °F 15.8 °F 41% 30.01 in 10.0 mi NNW 8.1 mph - N/A   Clear
2:35 AM 35.6 °F 29.2 °F 15.8 °F 44% 30.00 in 10.0 mi NNW 8.1 mph - N/A   Clear
2:55 AM 35.6 °F 29.2 °F 17.6 °F 48% 30.00 in 10.0 mi NNW 8.1 mph - N/A   Clear
3:15 AM 35.6 °F 29.9 °F 17.6 °F 48% 29.99 in 10.0 mi NNW 6.9 mph - N/A   Clear
3:35 AM 33.8 °F 27.0 °F 17.6 °F 52% 29.99 in 10.0 mi NNW 8.1 mph - N/A   Clear
3:55 AM 33.8 °F 29.6 °F 17.6 °F 52% 29.99 in 10.0 mi NNW 4.6 mph - N/A   Clear
4:15 AM 32.0 °F 25.6 °F 17.6 °F 55% 30.00 in 10.0 mi NNW 6.9 mph - N/A   Clear
4:35 AM 32.0 °F 24.8 °F 17.6 °F 55% 30.00 in 10.0 mi NNW 8.1 mph - N/A   Clear
4:55 AM 32.0 °F 22.5 °F 17.6 °F 55% 30.00 in 10.0 mi NNW 12.7 mph - N/A   Clear
5:15 AM 32.0 °F 24.2 °F 17.6 °F 55% 30.01 in 10.0 mi NNW 9.2 mph - N/A   Clear
5:35 AM 30.2 °F 23.4 °F 17.6 °F 60% 30.01 in 10.0 mi NNW 6.9 mph - N/A   Clear
5:55 AM 30.2 °F 25.4 °F 17.6 °F 60% 30.01 in 10.0 mi North 4.6 mph - N/A   Clear
6:15 AM 28.4 °F 22.2 °F 17.6 °F 64% 30.02 in 10.0 mi NW 5.8 mph - N/A   Clear
6:35 AM 28.4 °F 22.2 °F 17.6 °F 64% 30.03 in 10.0 mi NW 5.8 mph - N/A   Partly Cloudy
6:55 AM 30.2 °F 23.4 °F 19.4 °F 64% 30.04 in 10.0 mi NNW 6.9 mph - N/A   Mostly Cloudy
7:15 AM 30.2 °F 25.4 °F 19.4 °F 64% 30.03 in 10.0 mi NNW 4.6 mph - N/A   Overcast
7:35 AM 32.0 °F 27.5 °F 21.2 °F 64% 30.04 in 10.0 mi WNW 4.6 mph - N/A   Partly Cloudy
7:55 AM 33.8 °F 27.7 °F 21.2 °F 60% 30.05 in 10.0 mi NW 6.9 mph - N/A   Clear
8:15 AM 33.8 °F 25.8 °F 21.2 °F 60% 30.05 in 10.0 mi NW 10.4 mph - N/A   Clear
8:35 AM 33.8 °F 25.3 °F 23.0 °F 65% 30.05 in 10.0 mi NW 11.5 mph - N/A   Clear
8:55 AM 33.8 °F 25.8 °F 23.0 °F 65% 30.06 in 10.0 mi NW 10.4 mph - N/A   Scattered Clouds
9:15 AM 37.4 °F 28.2 °F 24.8 °F 60% 30.06 in 10.0 mi WNW 16.1 mph - N/A   Scattered Clouds
9:35 AM 35.6 °F 26.6 °F 24.8 °F 65% 30.08 in 10.0 mi NW 13.8 mph - N/A   Mostly Cloudy
9:55 AM 35.6 °F 25.5 °F 24.8 °F 65% 30.10 in 10.0 mi NW 17.3 mph - N/A   Mostly Cloudy
10:15 AM 33.8 °F 22.8 °F 24.8 °F 70% 30.11 in 10.0 mi NW 18.4 mph 28.8 mph N/A   Overcast
10:35 AM 35.6 °F 24.2 °F 24.8 °F 65% 30.11 in 10.0 mi NW 21.9 mph - N/A   Mostly Cloudy
10:55 AM 35.6 °F 25.2 °F 23.0 °F 60% 30.11 in 10.0 mi NNW 18.4 mph - N/A   Mostly Cloudy
11:15 AM 35.6 °F 26.2 °F 24.8 °F 65% 30.11 in 10.0 mi NW 15.0 mph - N/A   Mostly Cloudy
11:35 AM 33.8 °F 23.5 °F 23.0 °F 65% 30.11 in 10.0 mi NW 16.1 mph - N/A   Mostly Cloudy
11:55 AM 35.6 °F 25.9 °F 24.8 °F 65% 30.12 in 5.0 mi NW 16.1 mph - N/A   Mostly Cloudy
12:15 PM 35.6 °F 25.5 °F 26.6 °F 70% 30.11 in 6.0 mi NNW 17.3 mph - N/A   Mostly Cloudy
12:35 PM 37.4 °F 27.8 °F 26.6 °F 65% 30.11 in 10.0 mi NNW 17.3 mph - N/A   Mostly Cloudy
12:55 PM 35.6 °F 26.2 °F 24.8 °F 65% 30.11 in 10.0 mi NW 15.0 mph - N/A   Mostly Cloudy
1:15 PM 37.4 °F 27.8 °F 21.2 °F 52% 30.11 in 10.0 mi NW 17.3 mph - N/A   Scattered Clouds
1:35 PM 37.4 °F 26.4 °F 23.0 °F 56% 30.11 in 10.0 mi NW 23.0 mph - N/A   Partly Cloudy
1:55 PM 37.4 °F 25.9 °F 24.8 °F 60% 30.13 in 9.0 mi NW 25.3 mph - N/A   Scattered Clouds
2:15 PM 33.8 °F 25.3 °F 28.4 °F 81% 30.13 in 8.0 mi NW 11.5 mph - N/A   Mostly Cloudy
2:35 PM 37.4 °F 26.1 °F 24.8 °F 60% 30.13 in 10.0 mi North 24.2 mph 28.8 mph N/A   Mostly Cloudy
2:55 PM 32.0 °F 20.1 °F 23.0 °F 69% 30.14 in 10.0 mi NNW 19.6 mph - N/A   Overcast
3:15 PM 30.2 °F 20.8 °F 26.6 °F 86% 30.14 in - NW 11.5 mph - N/A   Unknown
3:35 PM 33.8 °F 23.9 °F 28.4 °F 81% 30.14 in 10.0 mi NW 15.0 mph - N/A   Scattered Clouds
3:55 PM 35.6 °F 28.0 °F 24.8 °F 65% 30.14 in 10.0 mi NNW 10.4 mph - N/A   Mostly Cloudy
4:15 PM 37.4 °F 27.8 °F 23.0 °F 56% 30.14 in 10.0 mi NW 17.3 mph - N/A   Scattered Clouds
4:35 PM 39.2 °F 30.2 °F 19.4 °F 45% 30.14 in 10.0 mi NNW 17.3 mph - N/A   Partly Cloudy
4:55 PM 39.2 °F 29.8 °F 17.6 °F 42% 30.14 in 10.0 mi NNW 18.4 mph - N/A   Partly Cloudy
5:15 PM 37.4 °F 28.9 °F 15.8 °F 41% 30.14 in 10.0 mi NNW 13.8 mph - N/A   Clear
5:35 PM 37.4 °F 27.8 °F 15.8 °F 41% 30.15 in 10.0 mi NNW 17.3 mph - N/A   Scattered Clouds
5:55 PM 37.4 °F 28.2 °F 14.0 °F 38% 30.15 in 10.0 mi NNW 16.1 mph - N/A   Partly Cloudy
6:15 PM 35.6 °F 26.6 °F 14.0 °F 41% 30.16 in 10.0 mi NNW 13.8 mph - N/A   Clear
6:35 PM 35.6 °F 26.6 °F 12.2 °F 38% 30.17 in 10.0 mi NW 13.8 mph - N/A   Clear
6:55 PM 33.8 °F 26.4 °F 14.0 °F 44% 30.17 in 10.0 mi NW 9.2 mph - N/A   Clear
7:15 PM 33.8 °F 24.8 °F 14.0 °F 44% 30.17 in 10.0 mi NW 12.7 mph - N/A   Scattered Clouds
7:35 PM 33.8 °F 26.4 °F 14.0 °F 44% 30.18 in 10.0 mi NNW 9.2 mph - N/A   Partly Cloudy
7:55 PM 32.0 °F 23.6 °F 14.0 °F 48% 30.19 in 10.0 mi NNW 10.4 mph - N/A   Clear
8:15 PM 32.0 °F 24.2 °F 14.0 °F 48% 30.20 in 10.0 mi NNW 9.2 mph - N/A   Clear
8:35 PM 30.2 °F 24.3 °F 14.0 °F 51% 30.21 in 10.0 mi NNW 5.8 mph - N/A   Clear
8:55 PM 30.2 °F 25.4 °F 14.0 °F 51% 30.22 in 10.0 mi NNW 4.6 mph - N/A   Clear
9:15 PM 30.2 °F 26.7 °F 14.0 °F 51% 30.22 in 10.0 mi NW 3.5 mph - N/A   Clear
9:35 PM 30.2 °F - 14.0 °F 51% 30.22 in 10.0 mi Calm Calm - N/A   Clear
9:55 PM 28.4 °F - 15.8 °F 59% 30.23 in 10.0 mi Calm Calm - N/A   Clear
10:15 PM 28.4 °F - 15.8 °F 59% 30.24 in 10.0 mi Calm Calm - N/A   Clear
10:35 PM 26.6 °F - 15.8 °F 64% 30.23 in 10.0 mi Calm Calm - N/A   Clear
10:55 PM 24.8 °F - 15.8 °F 69% 30.23 in 10.0 mi Calm Calm - N/A   Clear
11:15 PM 24.8 °F - 15.8 °F 69% 30.24 in 10.0 mi Calm Calm - N/A   Clear
11:35 PM 21.2 °F 14.9 °F 14.0 °F 74% 30.23 in 10.0 mi NNW 4.6 mph - N/A   Clear
11:55 PM 24.8 °F 20.5 °F 15.8 °F 69% 30.23 in 10.0 mi North 3.5 mph - N/A   Clear